Hourly Data Report for July 29, 2017

QUALICUM BEACH AIRPORT
BRITISH COLUMBIA

49°20'14.000" N
124°23'38.000" W
58.20 m
1026562
71766
VOQ

Download Data

Hourly Data (July 2017)
Hourly Data Report for July 29, 2017
TIME
LST
Temp Definition
°C
Dew Point Definition
°C
Rel Hum Definition
%
Precip. Amount Definition
mm

Wind Dir Definition
10's deg

Wind Spd Definition
km/h
Visibility Definition
km
Stn Press Definition
kPa
Hmdx Definition


Wind Chill Definition


Weather Definition


00:00 14.1 12.6 90 0.0   0   101.05     LegendNANA
01:00 13.5 12.2 92 0.0 26 2   101.07     LegendNANA
02:00 13.1 11.3 89 0.0 27 5   101.11     LegendNANA
03:00 14.3 10.5 78 0.0 26 4   101.14     LegendNANA
04:00 11.3 10.2 93 0.0 0 1   101.17     LegendNANA
05:00 10.5 9.5 93 0.0 0 1   101.18     LegendNANA
06:00 12.8 10.7 87 0.0 0 1   101.23     LegendNANA
07:00 18.0 11.2 64 0.0 0 1   101.27     LegendNANA
08:00 19.3 12.2 64 0.0 14 5   101.27     LegendNANA
09:00 19.2 13.7 70 0.0 8 9   101.31     LegendNANA
10:00 19.7 14.0 70 0.0 9 12   101.31     LegendNANA
11:00 20.4 11.9 58 0.0 10 16   101.32     LegendNANA
12:00 19.8 11.8 60 0.0 11 15   101.33     LegendNANA
13:00 21.0 13.3 61 0.0 11 12   101.33     LegendNANA
14:00 21.3 13.1 60 0.0 9 16   101.32     LegendNANA
15:00 23.3 12.9 52 0.0 9 14   101.29 26   LegendNANA
16:00 23.1 11.6 48 0.0 10 12   101.27 25   LegendNANA
17:00 22.1 12.9 56 0.0 9 13   101.23 25   LegendNANA
18:00 22.2 13.8 59 0.0 7 4   101.22 25   LegendNANA
19:00 18.8 13.9 73 0.0 9 3   101.27     LegendNANA
20:00 18.0 14.1 78 0.0 20 1   101.28     LegendNANA
21:00 16.4 13.6 83 0.0   0   101.32     LegendNANA
22:00 15.9 13.1 83 0.0 32 3   101.34     LegendNANA
23:00 14.9 12.8 88 0.0 22 1   101.37     LegendNANA

Notes on Data Quality.

Legend

  • E = Estimated
  • M = Missing
  • NA = Not Available*
  • [empty] = Indicates an unobserved value
Date modified: